Location: Austin
(30.3000°N, 97.7500°W)
Time: 12:09:35
(UTC-05:00)

CENTAUR R/B - Pass Details

Date: 03 April 2024
Orbit: 676 x 1509 km, 63.4° (Epoch: 20 April)

Event Time Altitude Azimuth Distance (km) Brightness Sun altitude
Rises 05:21:22 0° 322° (NW) 4,441 5.8 -24.9°
Reaches altitude 10° 05:24:22 10° 315° (NW) 3,540 5.2 -24.3°
Maximum altitude 05:32:35 42° 249° (WSW) 2,031 3.6 -22.7°
Drops below altitude 10° 05:41:01 10° 183° (S) 3,623 5.2 -21.0°
Sets 05:44:09 0° 176° (S) 4,552 5.8 -20.3°
